This is the latest recevied weather packets stored in our database for station/object WX4FUN-13. If no packets are shown the sender has not sent any weather packets the latest 10 day(s).
| Time | Temp. | Humidity | Pressure | Rain* | Wind** | Luminosity | Snow |
|---|---|---|---|---|---|---|---|
| 1777681269 | 13.89° C | 47% | 1011 hPa | 0 mm | - | 0 W/m² | - |
| 1777680670 | 14.44° C | 46% | 1010.8 hPa | 0 mm | - | 0 W/m² | - |
| 1777680070 | 15° C | 44% | 1010.7 hPa | 0 mm | - | 0 W/m² | - |
| 1777679470 | 15° C | 42% | 1010.6 hPa | 0 mm | - | 2 W/m² | - |
| 1777678867 | 15.56° C | 39% | 1010.5 hPa | 0 mm | - | 4 W/m² | - |
| 1777678268 | 15.56° C | 39% | 1010.4 hPa | 0 mm | - | 10 W/m² | - |
| 1777677668 | 16.11° C | 37% | 1010.3 hPa | 0 mm | - | 14 W/m² | - |
| 1777677067 | 16.11° C | 37% | 1010.2 hPa | 0 mm | - | 20 W/m² | - |
| 1777676466 | 16.67° C | 36% | 1010.1 hPa | 0 mm | - | 21 W/m² | - |
| 1777675865 | 17.22° C | 34% | 1010 hPa | 0 mm | - | 27 W/m² | - |
| 1777675266 | 17.78° C | 32% | 1009.9 hPa | 0 mm | - | 34 W/m² | - |
| 1777674666 | 18.33° C | 33% | 1009.9 hPa | 0 mm | - | 60 W/m² | - |
| 1777674066 | 18.33° C | 31% | 1009.8 hPa | 0 mm | - | 46 W/m² | - |
| 1777673463 | 18.89° C | 31% | 1010 hPa | 0 mm | - | 159 W/m² | - |
| 1777672862 | 19.44° C | 31% | 1009.9 hPa | 0 mm | - | 44 W/m² | - |
| 1777672261 | 19.44° C | 30% | 1010.1 hPa | 0 mm | - | 265 W/m² | - |
| 1777671659 | 18.89° C | 32% | 1010 hPa | 0 mm | - | 304 W/m² | - |
| 1777671061 | 20° C | 32% | 1010.1 hPa | 0 mm | - | 119 W/m² | - |
| 1777670461 | 20° C | 30% | 1010.1 hPa | 0 mm | - | 386 W/m² | - |
| 1777669862 | 18.89° C | 30% | 1010 hPa | 0 mm | - | 411 W/m² | - |
| 1777669259 | 18.89° C | 31% | 1010 hPa | 0 mm | - | 193 W/m² | - |
| 1777668658 | 18.89° C | 32% | 1010 hPa | 0 mm | - | 483 W/m² | - |
| 1777668059 | 19.44° C | 31% | 1010 hPa | 0 mm | - | 532 W/m² | - |
| 1777667460 | 18.89° C | 31% | 1010 hPa | 0 mm | - | 176 W/m² | - |
| 1777666859 | 18.89° C | 31% | 1010 hPa | 0 mm | - | 544 W/m² | - |
* Rain latest hour (hover to see other rain measurements)
** Current wind speed in m/s (hover to see current wind gust speed)